GFSNE_prec_radar_069.txt.gz
Reflectivity
-20 -20 -20 -20 -20 -20 -20 -20 -3 -11 -20 -20 -20 -20 -20 -20 -20 -20 -20 -20 -20 -20 -20 -20 -20 -20 -20 -20 -20 -20 -20 -20 -20 -19 -0 -7 -20 -20
-20 -20 -20 -20 -20 -20 -20 -20 -20 -12 -9 -20 -20 -20 -20 -20 -20 -20 -20 -20 -20 -20 -20 -20 -20 -20 -20 -20 -20 -13 -4 3 8 -1 8 10 4 -20
-20 -20 -20 -20 -20 -20 -20 -20 -20 -2 1 -6 -20 -20 -20 -20 -20 -20 -20 -20 -20 -20 -20 -20 -20 -20 -20 -3 -14 -18 -20 -20 -20 -20 -20 -20 -9 -1
-20 -20 -20 -20 -20 -20 -20 -20 1 5 14 9 2 -20 -20 -20 -20 -20 -20 -20 -20 -20 -20 -20 -20 -20 -20 -20 -20 -20 -20 -20 -20 -20 -20 -20 -20 -20
-20 -20 -20 -20 -20 -20 -20 -20 -16 -4 -20 -20 -20 -20 -20 -20 -20 -20 -20 -20 -20 -20 -20 -20 -20 -20 -20 -20 -20 -7 -20 -20 -20 -20 -20 -17 2 7
-20 -20 -20 -20 -20 -20 -12 3 -20 -20 -8 -20 -20 -20 -20 -20 -20 -20 -20 -20 -20 -20 -20 -20 -20 -20 -20 -20 -20 -20 -20 -20 -20 -20 -12 -11 -16 -20
-20 -20 -20 -20 -20 -20 -20 -20 -20 -20 -20 -20 -20 -20 -20 -20 -20 -20 -20 -20 -20 -20 -20 -20 -20 -20 -20 -20 -20 -20 -20 -20 -20 -20 -20 -20 -14 -2
-20 -20 -20 -20 -20 -20 -20 -20 -20 -20 -20 -20 -20 -20 -20 -20 -20 -20 -20 -20 -20 -20 -20 -20 -20 -20 -20 -20 -20 -20 -20 -20 -20 -20 -20 -20 -20 -2
-20 -20 -20 -20 -20 -20 -20 -20 -20 -20 -20 -20 -20 -20 -20 -20 -20 -20 -20 -20 -20 -20 -20 -20 -20 -20 -20 -20 -20 -20 -20 -20 -20 -20 -20 -20 -20 -20
-20 -20 -20 -20 -20 -20 -20 -20 -20 -20 -20 -20 -20 -20 -20 -20 -20 -20 -2 -0 -12 -20 -20 -12 -20 -20 -20 -20 -20 -20 -20 -20 -20 -20 -20 -20 -20 -20
-20 -20 -20 -20 -20 -20 -20 -20 -20 -20 -20 -20 -20 -20 -20 -20 -20 0 3 5 0 -20 -20 -4 -20 -20 -20 -20 -20 -20 -20 -20 -20 -20 -20 -20 -20 -20
-20 -20 -20 -20 -20 -20 -20 -20 -19 -20 -20 -20 -20 -20 -20 -20 -20 -20 2 5 -0 -18 -15 -20 -20 -6 -10 -20 -10 -20 -20 -20 -20 -20 -20 -20 -20 6
-20 -20 -20 -20 -20 -20 -20 -15 -20 -20 -20 -20 -20 -20 -20 -20 -20 -16 -20 -20 -6 -5 -20 -20 -1 -0 0 -7 -20 -20 -20 -20 3 -12 -13 -18 -15 6
13 -20 -18 -20 -20 -20 -20 -20 -20 -20 -1 -10 -9 -6 -20 -10 3 4 -20 -20 -20 -20 -20 -15 4 4 4 -7 -20 -20 -20 1 6 -3 -3 -5 -10 -14
-16 5 12 -17 -1 -20 -18 -18 16 15 -2 6 -3 -20 -20 -20 -18 -20 -20 -20 -20 -20 -20 -20 -0 -0 4 4 3 -3 0 -2 5 13 14 8 2 -5
-15 -0 7 8 8 11 11 -18 5 11 6 1 5 -16 -3 -20 -20 -20 -20 -20 -2 -20 -20 -20 -20 -19 1 -3 -1 -1 1 9 6 8 10 9 -4 9
12 -16 6 3 -17 17 1 -15 -1 -2 6 5 9 -0 -16 -10 -20 -20 -20 -20 -2 -20 -20 -20 -20 -20 -20 -20 -20 -7 4 11 3 5 3 -0 -1 10
2 -2 9 3 2 9 1 -6 -1 -3 -9 -13 0 -5 -19 -20 -19 -10 -20 -7 -1 -20 -20 -20 -11 -20 -20 -20 -20 2 13 12 4 -1 9 7 16 5
10 17 15 21 20 14 -8 7 6 -20 -7 -20 -2 -7 -20 -20 -20 -20 -20 1 -6 -20 -20 -20 -20 -20 1 6 -8 -20 7 -16 2 2 1 7 9 11
-20 -13 1 12 16 6 5 0 -7 -1 -2 -1 -14 -5 -20 -20 3 -20 -20 -4 -16 -20 -20 -20 -20 -20 -9 1 1 -20 -20 2 1 0 2 -1 -12 -20
-20 -20 -20 -19 -18 -4 14 9 8 5 3 -0 -20 -20 -20 -20 -12 -20 -20 -20 -20 -20 -20 -20 -20 -20 -20 -8 -1 -10 4 -20 -3 5 1 1 3 4
-20 -18 3 -10 -10 6 -14 -5 13 9 2 -17 -20 -16 -20 -20 -20 -20 -20 -20 -20 -20 -20 -20 -20 -20 -20 4 5 8 5 2 -20 -20 -20 -18 7 4
-4 -20 -20 -16 -3 -1 -16 -20 -12 15 15 -0 -3 -16 -20 -20 -20 -20 -20 -20 -20 -20 -20 -20 -20 -20 -20 -2 -0 1 1 1 2 3 5 -20 -20 -20

GFSNE_prec_radar_072.txt.gz
Reflectivity
-20 -20 -20 -20 -20 -20 -20 -20 -20 -20 -20 -20 -20 -20 -20 -20 -20 -20 -20 -20 -20 -20 -20 -20 -20 -20 -20 -20 -20 -20 -20 -20 -20 -20 -20 -20 -20 -20
-20 -20 -20 -20 -20 -20 -20 -20 -20 -20 -20 -20 -20 -20 -20 -20 -20 -20 -20 -20 -20 -20 -20 -20 -20 -20 -20 -20 -20 -17 -12 -9 3 5 7 8 10 11
-20 -20 -20 -20 -20 -20 -20 -19 -0 -20 -20 -20 -17 -20 -20 -19 -20 -20 -20 -20 -20 -20 -20 -20 -20 -20 -20 -20 -20 -20 -20 -20 -20 -20 -20 -20 -20 -13
-20 -20 -20 -20 -20 -19 -10 -20 -19 -20 -20 -20 -20 -20 6 -17 -20 -20 -20 -20 -20 -20 -20 -20 -20 -20 -20 -20 -20 -20 -20 -20 -20 -20 -20 -20 -20 -20
-20 -20 -20 -20 -20 -20 -20 -0 -20 -20 -20 -3 -16 -12 -20 -11 -20 -20 -20 -20 -20 -20 -20 -20 -20 -20 -20 -20 -20 -20 -20 -20 -20 -20 -8 -3 -0 2
-20 -20 -20 -20 -20 -20 -20 -20 -20 -20 -9 1 -8 -3 -3 -17 -3 -20 -20 -20 -20 -20 -20 -20 -20 -20 -20 -20 -20 -20 -20 -20 -20 -20 -20 -11 -11 1
-20 -20 -20 -20 -20 -20 -20 -20 -20 -14 -15 -5 8 1 -14 -3 2 -10 -20 -20 -20 -20 -20 -20 -20 -20 -20 -20 -20 -20 -20 -20 -20 -20 -20 -20 -20 -20
-20 -20 -20 -20 -20 -20 -20 -20 -20 -20 1 20 20 9 -19 -10 -1 -20 -20 -20 -20 -20 -20 -20 -20 -20 -20 -20 -20 -20 -20 -20 -20 -20 -20 -20 -20 -20
-20 -20 -20 -20 -20 -20 -20 -20 -20 -20 -20 1 12 10 4 2 -12 -4 -20 -20 -20 -20 -20 -20 -20 -20 -20 -20 -20 -20 -20 -20 -20 -20 -20 -20 -20 -20
-20 -20 -20 -20 -20 -18 -17 -1 -10 -4 -18 -16 -20 -16 1 -8 -12 -15 -20 -12 -20 -20 -20 -10 -20 -20 -20 -20 -20 -20 -20 -20 -20 -20 -20 -20 -20 -20
-20 -20 -20 -7 -20 -20 -20 -1 2 -6 -16 -20 -20 -20 -20 -20 -20 -20 0 5 6 2 -20 -4 -7 -20 -20 -20 3 -3 -20 -20 -20 -20 -20 -20 -20 -20
-19 -0 -9 -20 -20 -5 -4 8 11 4 4 5 -18 -20 -20 -20 -20 -20 -0 4 5 3 2 -17 -9 -20 1 -20 -8 -20 3 -20 -19 -1 7 -17 -20 -2
-20 -10 3 -8 6 -20 14 10 9 8 -2 5 7 -5 -18 -3 -20 -20 -15 2 8 6 -1 -13 -2 -14 -1 1 -5 -20 -19 6 -12 -20 7 -11 -8 -0
-20 -20 -13 6 11 -1 5 14 -12 -2 12 18 13 -1 -2 -5 -14 1 1 6 4 5 -20 -2 4 3 1 1 -1 -20 -20 -10 -20 4 18 14 -20 -19
8 2 -20 -20 -20 -17 -7 -17 -8 32 26 20 12 12 7 4 4 5 2 -4 -1 -11 -20 0 3 -2 -2 1 2 -12 -1 -15 -12 17 5 15 11 11
10 9 -0 3 -7 -14 10 7 21 13 16 17 15 16 9 18 12 0 3 3 9 7 1 -17 -15 -17 -4 -1 -19 -20 0 4 3 10 8 6 -8 3
-10 9 12 14 14 15 14 12 14 -1 0 13 12 11 17 16 9 8 5 2 4 4 3 0 -20 -14 -19 -19 -1 -0 -0 -4 15 2 8 5 11 22
-6 11 17 18 17 17 17 14 12 3 -11 -1 6 -7 11 15 11 13 6 6 7 5 4 1 1 -4 -8 -5 -15 4 8 15 15 -13 -2 11 7 18
-3 -1 2 4 -0 8 27 21 20 12 19 13 11 5 6 6 14 10 12 9 8 5 3 3 1 -0 1 7 9 -18 4 8 3 -19 -8 8 7 3
-20 -2 1 1 -3 -5 -16 -9 15 19 17 13 14 12 13 9 13 5 9 10 10 5 2 -2 -20 -20 -7 2 3 -6 -20 -4 8 4 3 -20 -8 -20
-14 -11 0 -1 1 1 2 -0 8 9 16 16 15 11 15 12 9 8 9 9 -6 3 0 -3 -7 -20 -20 -12 1 1 16 -20 -7 4 -8 1 7 15
0 0 -1 -0 3 -3 3 1 3 2 -5 17 17 14 17 13 7 9 11 13 -0 1 2 -4 -20 -20 -20 3 7 11 22 8 -11 -20 -20 -18 7 4
1 1 1 1 3 3 -20 1 -1 2 3 13 14 18 15 16 6 10 13 11 4 3 -1 -20 -20 -20 -20 -1 2 2 13 -1 13 9 23 -20 -20 -20

GFSNE_prec_radar_075.txt.gz
Reflectivity
-20 -20 -20 -20 -20 -20 -20 -20 -20 -20 -20 -20 -20 -20 -20 -20 -20 -20 -20 -7 -12 -20 -20 -20 -20 -20 -20 -20 -20 -20 -20 -20 -20 -20 -20 -20 -19 -19
-20 -20 -20 -20 -20 -20 -20 -20 -20 -20 -20 -20 -20 -20 -20 -20 -16 -15 -20 -20 -20 -20 -20 -20 -20 -20 -20 -20 -20 -20 -20 -19 -9 -17 -5 -16 -3 9
-20 -20 -20 -20 -20 -20 -20 -20 -20 -20 -20 -20 -20 -20 -20 -20 -20 -20 -20 -20 -20 -20 -20 -20 -20 -20 -20 -20 -20 -20 -20 -20 -20 -20 -20 -20 -20 -20
-20 -20 -20 -20 -20 -20 -20 -20 -20 -20 -20 -20 -20 -20 -20 -20 -20 -19 -20 -20 -20 -20 -20 -20 -20 -20 -20 -20 -20 -20 -20 -20 -20 -20 -2 2 -7 -20
-20 -20 -20 -20 -20 -20 -20 -20 -20 -20 -20 -20 -20 -20 -20 -20 -18 6 -20 -20 -20 -20 -20 -20 -20 -20 -20 -20 -20 -20 -20 -20 -20 -20 -20 -5 2 5
-20 -20 -20 -20 -20 -20 -20 -20 -20 -20 -20 -20 -20 -20 -20 -20 -1 7 9 -3 -13 -19 -20 -20 -20 -20 -20 -20 -20 -20 -20 -20 -20 -20 -20 -12 -20 -20
-20 -20 -20 -20 -20 -20 -20 -20 -20 -20 -20 -20 -20 -7 -20 8 -13 15 12 13 -2 -18 -20 -20 -20 -20 -20 -20 -20 -20 -20 -20 -20 -20 -20 -20 -20 -20
-20 -20 -20 -20 -20 -20 -20 -20 -20 -20 -20 3 5 5 8 19 15 9 8 8 -20 -20 -20 -20 -20 -20 -20 -20 -20 -20 -20 -20 -20 -20 -20 -20 -20 -20
-20 -20 -20 -20 -20 -20 -20 -20 -20 -20 -15 -11 7 -18 15 14 14 -19 -15 -20 3 -20 -20 -20 -20 -7 -20 -20 -20 -20 -20 -20 -20 -20 -20 -20 -20 -20
-20 -20 -20 -20 -20 -20 -7 -17 -8 3 8 -16 -19 -15 -3 7 10 12 1 -9 -20 -20 -20 -19 -15 -20 -20 -20 -20 -16 -20 -20 -20 -20 -20 -20 -20 -20
-20 -20 -20 -20 -20 -20 -18 1 -2 -16 5 -3 -20 -20 -20 -20 -20 -20 -20 1 1 -1 -16 11 0 -20 -20 -20 -20 -20 -20 -20 -20 -20 -20 -20 -20 -20
-20 -20 -20 -20 -20 -20 -20 -15 18 -1 -12 29 -16 -20 -20 -20 -20 -20 -20 -1 -13 3 -20 8 9 -10 -18 -20 -9 -20 -20 -15 2 2 -20 -2 13 1
-20 -20 -20 -20 -20 -20 -11 -0 11 1 -6 9 27 18 14 -2 -16 -19 -20 -15 -12 -9 -20 3 4 -12 2 -8 -20 -20 -20 -9 -20 -20 -2 2 8 14
-20 -12 -20 -20 -20 -20 -20 -20 -20 -20 9 4 16 17 17 13 3 -5 -3 -20 -15 -11 -6 7 11 7 8 6 4 -20 -20 -20 -9 -20 -20 7 11 13
-19 -8 -20 -20 -20 -20 -20 -20 -20 -3 17 11 14 16 13 13 9 -6 -11 9 4 0 -20 5 -3 -0 2 4 8 5 -19 8 -9 -19 16 -10 4 -14
-20 -20 -20 -20 -20 -15 -20 -9 -4 2 7 13 14 15 18 15 12 16 14 11 8 9 -19 -20 -12 9 1 4 5 8 7 4 2 -20 -1 8 -11 5
-20 -18 10 3 7 6 -13 15 12 10 12 13 9 6 14 14 12 16 10 6 10 12 5 -5 -2 -20 -2 5 6 -20 5 -7 -13 15 24 -2 -16 12
-20 1 -2 9 4 2 5 -5 26 13 19 14 10 -6 -12 13 13 16 10 12 14 8 4 5 7 6 4 -4 -20 -10 13 16 18 17 -2 4 5 -14
-8 -5 2 4 7 4 1 5 -0 -3 35 23 12 15 12 -3 -13 11 13 13 14 0 5 -17 7 6 4 10 6 -20 2 4 6 -4 14 7 10 -20
-20 -18 -2 -0 -2 -3 -15 3 -13 3 5 -7 26 19 16 18 11 12 12 11 15 5 6 3 6 0 4 0 -5 -20 -17 -3 -1 9 6 -16 -20 -20
-11 -5 -1 -0 -1 -0 4 7 7 7 6 6 5 12 15 14 14 14 11 1 8 10 4 3 1 -20 -20 -20 -19 -17 12 -10 -20 -20 -12 -5 1 -6
2 -0 -1 -0 3 3 5 9 7 3 5 8 7 7 10 16 14 18 12 14 1 3 4 2 0 -20 -20 -20 -0 -1 7 24 -20 -20 -20 -20 -3 0
4 4 2 3 3 2 3 5 3 6 6 8 6 0 3 -5 14 18 14 12 11 3 1 4 -2 -4 -20 -20 -12 -7 -8 15 16 18 -15 -20 -20 -20

GFSNE_prec_radar_078.txt.gz
Reflectivity
28 20 6 1 -11 -20 -20 -20 -20 -20 -20 -20 -20 -20 -20 -20 -20 -20 -20 -20 -20 -20 -20 -20 -20 -20 -20 -20 -20 -20 -20 -20 -20 -20 -17 -17 -20 -17
6 -0 1 -6 -2 -20 -20 -20 -20 -20 -20 -20 -20 -20 -20 -20 -20 -20 -20 -20 -20 -20 -13 -20 -20 -20 -20 -20 -20 -20 -20 -20 -20 -20 -20 -20 -20 -20
9 2 13 8 -19 -20 -20 -20 -20 -20 -20 -20 -20 -20 -20 -20 -20 -20 -20 -20 -9 -20 4 -19 -20 -20 -20 -20 -20 -20 -20 -20 -20 -20 -20 -20 -20 -20
-13 -20 -20 -20 -20 -20 -20 -20 -20 -20 -20 -20 -20 -20 -20 -20 -20 -20 -20 -20 -20 -20 -15 -20 -20 -20 -20 -20 -20 -20 -20 -20 -20 -20 -20 -3 -20 -20
-20 -20 -20 -20 -20 -20 -20 -20 -20 -20 -20 -20 -20 -20 -20 -20 -20 -20 -20 -20 -20 -20 -20 -20 -20 -20 -20 -20 -20 -20 -20 -20 -20 -20 -20 -20 -10 -2
-20 -20 -20 -20 -20 -20 -20 -20 -20 -20 -20 -20 -20 -20 -20 -20 -20 -20 -20 -20 -20 -20 -20 -20 -20 -20 -20 -20 -20 -20 -20 -20 -20 -20 -20 -20 -20 -20
-20 -20 -20 -20 -20 -20 -20 -20 -20 -20 -20 -20 -20 -20 -20 -20 -20 -20 -20 -20 -14 -20 -13 -20 -20 -20 -20 -20 -20 -20 -14 -20 -20 -20 -20 -20 -20 -20
-20 -20 -20 -20 -20 -20 -20 -20 -20 -20 -20 -2 -1 8 -17 -20 -20 -20 -20 22 6 -20 -19 -20 -20 -20 -20 -20 -20 -20 -20 -20 -20 -20 -20 -20 -20 -8
-20 -20 -20 -20 -20 -20 -20 -20 -20 -20 -20 3 6 0 -4 -20 -20 -20 -20 -19 -20 -20 -20 -20 -20 -20 -20 -20 -17 -20 -20 -13 -20 -20 -20 -20 -20 -20
-20 -20 -20 -20 -20 -20 -20 -20 -20 -20 -20 4 -8 -17 8 -20 0 -20 -20 -20 -20 -20 -20 -20 -20 -20 -20 -20 -11 -20 -20 -20 -20 -20 -20 -20 -20 -20
-20 -20 -20 -20 -20 -20 -20 -20 -20 -20 -20 -20 -4 -6 -20 -20 -10 -20 -20 -20 -20 -20 -20 -20 -20 -13 -20 -20 -20 -20 -20 1 -20 2 3 -20 -20 -20
-20 -20 -20 -20 -20 -20 -20 -20 -20 -20 -20 -20 -20 -20 -20 23 17 -20 -20 -20 -20 -20 -20 -20 -20 -20 -20 -20 -20 -20 -20 -20 -20 -20 6 12 13 -14
-20 -20 -20 -20 -20 -20 -20 -20 -20 -20 -20 -20 -17 -5 -9 6 7 -20 -20 -20 -20 -20 -20 -20 -20 -20 -20 -20 -20 -20 -20 -20 -19 -20 -20 -20 -20 -9
-20 -20 -20 -20 -20 -20 -20 -20 -20 -20 -20 -20 -19 -20 -20 2 -6 8 10 -20 -20 -20 -20 -20 -20 -20 -20 -20 -20 -20 -20 -20 -20 -20 -20 -20 -6 8
-20 -20 -20 -20 -20 -20 -20 -20 -20 -20 -20 -20 4 -20 -20 -18 10 2 -14 7 -20 -20 -20 -20 -20 -20 -18 -20 -20 -20 -20 -20 -20 -11 -20 -20 -20 -20
-20 -20 -20 -20 -20 -20 -20 -20 -20 5 -13 -0 -13 -20 -17 14 -8 -4 -5 -11 -9 -20 -20 -20 -20 -20 -20 -20 -20 -20 -20 -20 -20 -20 -20 -20 -20 -1
-20 -20 -20 -17 -20 -20 -20 -20 -20 -13 -4 26 1 -20 -20 9 -6 10 -19 -20 7 -20 -20 -20 -20 -20 -20 -20 -15 -20 -20 -20 -20 -20 9 16 -20 -20
-20 -20 -7 -20 -20 -20 -4 -6 -20 -20 -20 -20 5 26 2 -20 -20 -20 -20 -20 -18 -20 -20 -20 -20 1 -18 -14 -13 -9 -20 -6 -20 -10 -20 -20 -20 -20
-20 -20 -20 -20 -20 -20 -1 -2 3 1 -0 2 -20 15 24 -12 -20 -20 -19 7 -20 -20 -20 -20 -20 -7 1 -20 -20 -11 -20 -20 -20 -20 -20 -20 -20 -20
-20 -20 -20 -20 -20 -20 -20 -16 -1 -20 -0 -5 -20 -6 -19 -0 9 14 17 -13 -12 -20 -20 -20 -20 -20 5 -6 -20 -20 -20 -20 -20 -20 -11 -20 -20 -20
-15 -20 -20 -20 -20 -20 -1 -1 -2 2 -20 -9 -4 -0 -20 -2 3 12 12 -20 -15 -20 -5 -20 -20 -20 -20 -20 -20 -20 -20 -20 -12 -20 -20 -20 -20 -20
-20 -20 -20 -20 -20 0 2 3 -16 -19 -16 -3 -20 0 -15 11 10 -17 -15 16 5 -20 -20 -20 -20 -20 -20 -20 -20 -20 -20 -20 -20 -20 -20 -20 -20 -20
-20 -20 6 -20 -20 -17 -14 -18 -3 -2 -20 -8 4 -20 -20 2 -1 -8 -20 22 4 -20 -20 -20 -20 -20 -20 -20 -20 -20 -20 -20 -19 -19 -20 -19 -20 -20

GFSNE_prec_radar_081.txt.gz
Reflectivity
3 24 25 25 -10 5 2 -20 -20 -20 -20 -20 -20 -20 -20 -20 -20 -20 -20 -20 -20 -20 -20 -20 -20 -20 -20 -20 -20 -20 -20 -20 -20 -20 -20 -20 -20 -20
29 27 22 30 5 -20 -2 -17 -20 -20 -20 -20 -20 -20 -20 -20 -20 -20 -20 -20 -20 -20 -20 -20 -20 -20 -20 -20 -20 -20 -20 -20 -20 -20 -20 -20 -14 -20
11 28 16 -17 -20 -20 -20 -20 -20 -20 -20 -20 -20 -20 -20 -20 -20 -20 -20 -20 -19 -19 -20 -20 -20 -20 -20 -20 -20 -20 -20 -20 -20 -20 -20 -20 -20 -20
-19 -19 -20 -20 -20 -20 -20 -20 -20 -20 -20 -20 -20 -20 -20 -20 -20 -20 -20 -20 -12 7 5 -20 -20 -11 -20 -20 -20 -20 -20 -20 -20 -20 -20 -20 -20 -20
-20 -20 -20 -20 -20 -20 -20 -20 -20 -20 -20 -20 -20 -20 -20 -20 -20 -20 -20 -20 -20 -20 -20 -20 -20 -20 -20 -20 -20 -20 -20 -20 -20 -20 -20 -20 -20 -20
-20 -20 -20 -20 -20 -20 -20 -20 -20 -20 -20 -20 -20 -20 -20 -20 -20 -20 -20 -20 -20 -20 -20 -7 -20 -20 -20 -20 -20 -20 -20 -20 -20 -20 -20 -20 -20 -20
-20 -20 -20 -20 -20 -20 -20 -20 -20 -20 -20 -20 -20 -20 -20 -20 -20 -20 -20 -20 -20 -20 -20 -20 6 -15 -20 -20 -20 2 -14 -20 -17 -20 -20 -20 -20 -20
-20 -20 -20 -20 -20 -20 -20 -20 -20 -20 -20 -20 -20 -20 -20 -20 -20 -20 -10 3 -20 -20 -20 -20 -20 -20 -20 -20 -20 -20 -20 -20 -20 -20 -20 -20 -20 -20
-20 -20 -20 -20 -20 -20 -20 -20 -20 -20 -20 -20 -20 -20 -19 -20 -19 1 5 -20 -20 -20 -20 -20 -20 -20 -20 -20 -20 -20 -18 -20 -20 4 -12 -20 -20 -20
-20 -20 -20 -20 -20 -20 -20 -20 -20 -20 -20 -20 -20 -20 -20 -20 1 2 3 -5 -20 -20 -20 -20 -20 -20 -20 -20 -20 -20 -20 -20 -11 -11 -20 -20 -20 -20
-20 -20 -20 -20 -20 -20 -20 -20 -20 -20 -20 -20 -20 -20 -20 -20 9 14 13 9 1 -20 -20 -20 -20 -20 -20 -20 -20 -20 -20 -20 -20 -20 -15 6 -1 10
-20 -20 -20 -20 -20 -20 -20 -20 -20 -20 -20 -20 -20 -20 -20 -20 -19 -11 -20 16 22 -20 -20 -19 -20 -20 -20 -20 -20 -20 -20 -20 -20 -20 -20 5 -20 -6
-20 -20 -20 -20 -20 -20 -20 -20 -20 -20 -20 -20 -20 -20 -20 -20 -20 -20 -19 -15 -11 -20 -20 -10 -20 -20 -20 -20 -20 -20 -20 -20 -20 -20 -20 -20 -20 -10
-20 -20 -20 -20 -20 -20 -20 -20 -20 -20 -15 -20 -20 -20 -20 -20 -20 -17 -20 -20 -14 -10 -1 12 -20 -20 -20 -20 -20 -20 -20 -20 -20 -20 -20 -20 -20 -20
-20 -20 -20 -20 -20 -20 -20 -20 -20 -20 -20 -20 -0 2 -8 -20 -20 -20 -5 -20 -18 -20 -20 -20 -20 -20 -20 -20 -20 -20 -20 -20 -20 -20 -20 -20 -20 -20
-20 -20 -20 -20 -20 -20 -20 -20 -20 -20 -1 5 -20 -20 -2 -19 -20 -20 8 -9 -11 -14 -20 -20 -20 -20 -19 -20 -20 -20 -20 -20 -20 -20 -20 -20 -20 -20
-20 -20 -20 -20 -20 -20 -20 -20 -20 -20 -16 -20 -10 -20 -20 -11 -10 -20 6 -20 8 -20 -20 -20 -20 -20 -19 -20 -5 -20 -20 -20 -20 -20 -20 -20 -20 -20
-20 -20 -20 -20 -20 -20 -20 -20 -20 -20 -17 -5 -14 -1 -20 1 13 29 14 -10 -20 -20 -20 -20 -20 -20 -20 -20 -16 -20 -20 -20 -20 -20 -20 -20 -20 -20
-20 -20 -20 -20 -20 -20 -20 -20 -20 -20 -20 4 -16 -9 -2 -18 -8 10 5 -4 -19 -20 -20 -20 -20 -20 -20 3 -20 -20 -20 -20 -20 -20 -20 -20 -20 -20
-20 -20 -20 -20 -20 -20 -20 -20 -20 -20 -10 -20 -20 -11 -12 1 -20 -9 8 13 -7 23 -2 -20 -20 -20 -20 -20 -20 -20 -20 -20 -20 -20 -20 -20 -20 -20
-20 -20 -20 -20 -20 -20 -20 -19 -20 -20 -20 -20 -20 -20 -4 -11 -20 -15 12 10 -2 2 -20 -20 -20 -20 -20 -20 -20 -20 -20 -20 -20 -20 -20 -20 -20 -20
-20 -20 -20 -20 -20 -20 -20 -20 -20 -20 -16 -20 -20 1 -20 -20 -20 -20 -13 -8 -20 -13 -19 -20 -20 -20 -20 -20 -20 -20 -20 -20 -20 -20 -20 -20 -20 -20
-20 -20 -20 -20 -20 -20 -20 -20 -20 -20 -20 -20 0 -20 -20 -20 -20 -20 -17 9 -11 7 23 -20 -20 -20 -20 -6 -20 -20 -20 -20 -20 -20 -20 -19 -20 -20